Tracking 27107 objects as of 20-Mar-2023
HD Live streaming from Space Station
objects crossing your sky now

STARLINK-4278

Track STARLINK-4278 now!
10-day predictions
STARLINK-4278 is classified as:


NORAD ID: 53182
Int'l Code: 2022-083BC
Perigee: 545.8 km
Apogee: 547.8 km
Inclination: 53.2 °
Period: 95.4 minutes
Semi major axis: 6917 km
RCS: Unknown
Launch date: July 17, 2022
Source: United States (US)
Launch site: AIR FORCE EASTERN TEST RANGE (AFETR)
Your satellite tracking list
Your tracking list is empty




NASA's NSSDC Master Catalog

Two Line Element Set (TLE):
1 53182U 22083BC  23079.11166568 -.00000554  00000-0 -16680-4 0  9990
2 53182  53.2182 332.4617 0001440  80.2470 279.8685 15.08853429 38458
Source of the keplerian elements: AFSPC